This is the latest recevied weather packets stored in our database for station/object IK8TGH-3. If no packets are shown the sender has not sent any weather packets the latest 10 day(s).
| Time | Temp. | Humidity | Pressure | Rain* | Wind** | Luminosity | Snow |
|---|---|---|---|---|---|---|---|
| 1777637583 | 17.78° C | 54% | 1020 hPa | - | - | - | - |
| 1777636383 | 17.22° C | 54% | 1020.1 hPa | - | - | - | - |
| 1777635182 | 16.67° C | 55% | 1020.1 hPa | - | - | - | - |
| 1777633982 | 16.67° C | 57% | 1020.3 hPa | - | - | - | - |
| 1777632782 | 16.11° C | 56% | 1020.3 hPa | - | - | - | - |
| 1777631581 | 16.67° C | 54% | 1020.1 hPa | - | - | - | - |
| 1777630381 | 16.11° C | 55% | 1020.1 hPa | - | - | - | - |
| 1777629181 | 16.67° C | 55% | 1020 hPa | - | - | - | - |
| 1777627980 | 17.78° C | 56% | 1019.8 hPa | - | - | - | - |
| 1777626780 | 17.78° C | 56% | 1019.9 hPa | - | - | - | - |
| 1777625580 | 17.78° C | 57% | 1019.8 hPa | - | - | - | - |
| 1777624379 | 17.22° C | 57% | 1019.6 hPa | - | - | - | - |
| 1777623179 | 17.22° C | 58% | 1019.4 hPa | - | - | - | - |
| 1777621979 | 17.22° C | 59% | 1019.1 hPa | - | - | - | - |
| 1777620778 | 17.22° C | 59% | 1018.9 hPa | - | - | - | - |
| 1777619578 | 17.22° C | 62% | 1018.8 hPa | - | - | - | - |
| 1777618378 | 17.22° C | 70% | 1018.7 hPa | - | - | - | - |
| 1777617178 | 17.22° C | 69% | 1018.6 hPa | - | - | - | - |
| 1777615977 | 17.22° C | 70% | 1018.4 hPa | - | - | - | - |
| 1777614777 | 17.22° C | 70% | 1018.3 hPa | - | - | - | - |
| 1777613577 | 17.22° C | 69% | 1018.4 hPa | - | - | - | - |
| 1777612376 | 17.22° C | 69% | 1017.9 hPa | - | - | - | - |
| 1777611176 | 17.22° C | 69% | 1017.9 hPa | - | - | - | - |
| 1777609976 | 17.22° C | 69% | 1017.8 hPa | - | - | - | - |
| 1777608775 | 17.22° C | 68% | 1017.5 hPa | - | - | - | - |
* Rain since midnight (hover to see other rain measurements)
** Current wind speed in m/s (hover to see current wind gust speed)